ROMMA est une association bénévole à but non lucratif. Votre soutien est indispensable : ADHERER à ROMMA ou FAIRE un DON

Taninges - (74, Haute-Savoie)

Vallée du Giffre (635 m)   Longitude: 06° 35' 38" E   Latitude: 46° 06' 21" N Station romma n°98
 

Détail journalier du     <<     >>

Température Precipitation Humidité Pression Vent Dir Rafale Dir. rafale Ensol.
Heure (°C) (mm) (%) (hPa) (km/h) (km/h) (min)
01:00 -0.1097102105ENE0
02:00 0.009710211ONO6O0
03:00 -0.209710211NE5O0
04:00 -0.709710201ONO5O0
05:00 -0.709710191E5ESE0
06:00 -0.7097101803NE0
07:00 -0.209710183ONO10ONO0
08:00 -0.209710175ONO13NO0
09:00 -0.409610174O15ONO0
10:00 -0.609410174O13NO0
11:00 -0.209310171NE6SSE0
12:00 -0.209210162SSO16SO0
13:00 -0.10.29310163OSO10SO0
14:00 0.10.29110153ENE6ENE0
15:00 -0.709410156O16ONO0
16:00 -0.50.49410153E13OSO0
17:00 -0.70.29410151O6O0
18:00 -0.909410161NE5ENE0
19:00 -1.109310162NE6E0
20:00 -1.509410171S6S0
21:00 -1.409410171O6O0
22:00 -1.9094101703NE0
23:00 -1.809510171O5O0
minuit -1.709410172OSO8OSO0

Graphique du 09-01-2019

 

Serveur OMMA